sat.trackr.live / text

‹ back to catalog

STARLINK-5654

NORAD 55366 · 2023-013AM

PAYLOAD ACTIVE UNKNOWN

§ Identity

Operator
Country
US
Launch date
2023-01-26
Launch site
AFETR
Launch vehicle
Mass (kg)
RCS (m²)

Purposes: comms

External: N2YO · Heavens-Above · Gunter

§ Orbital elements

Epoch: 2026-09-20T01:37:03.455040Z

Period
94.27 min
Inclination
43.0017°
Eccentricity
0.0000649
Mean motion
15.27575048 rev/d
Perigee alt
482.6 km
Apogee alt
483.5 km
Semi-major
6,861.2 km
B*
3.8612e-6
RAAN
270.7253°
Arg perigee
320.1698°
Mean anomaly
39.9106°
Rev number
20,157

§ Raw data

STARLINK-56541 55366U 23013AM  26263.06740110 -.00000156  00000+0  38612-5 0  99992 55366  43.0017 270.7253 0000649 320.1698  39.9106 15.27575048201573

JSON: /api/v1/satellites/55366 · /tle

For live sub-satellite position, see the globe view (requires WebGL).

§ Visibility from observer

Set your observer location to see the next 7 days of passes ≥ 10°. The values pass through the URL so the page stays shareable.

No JS? Fill the form by hand. The geolocation button needs JavaScript.